Location: Flensburg
(54.6357°N, 9.5142°E)
Time: 23:42:06
(UTC+01:00)

N. Korean satellite - Visible Passes

Search period start: 21 January 2018 00:00
Search period end: 31 January 2018 00:00
Orbit: 458 x 515 km, 97.2° (Epoch: 20 January)

Date Brightness Start Highest point End Pass type
(mag) Time Alt. Az. Time Alt. Az. Time Alt. Az.
21 Jan 9.9 06:05:39 10° NE 06:07:29 14° E 06:09:19 10° ESE visible
21 Jan 6.4 07:37:58 10° N 07:41:24 63° WNW 07:44:49 10° SSW visible
21 Jan 7.3 18:20:35 10° S 18:24:06 56° W 18:27:36 10° NNW visible
22 Jan 6.8 07:14:16 10° NNE 07:17:44 71° ESE 07:21:11 10° S visible
22 Jan 6.4 17:56:50 10° SSE 18:00:24 80° ENE 18:03:56 10° NNW visible
22 Jan 10.1 19:33:09 10° WSW 19:34:25 12° W 19:35:41 10° WNW visible
23 Jan 8.1 06:50:43 10° NNE 06:53:59 38° E 06:57:15 10° SSE visible
23 Jan 6.8 17:33:22 10° SE 17:36:47 44° ENE 17:40:09 10° N visible
23 Jan 9.5 19:07:53 10° SW 19:10:30 19° W 19:13:07 10° NW visible
24 Jan 9.2 06:27:22 10° NE 06:30:10 22° E 06:32:57 10° SSE visible
24 Jan 8.5 18:43:27 10° SSW 18:46:40 32° W 18:49:52 10° NNW visible
25 Jan 9.9 06:04:28 10° ENE 06:06:16 13° E 06:08:03 10° ESE visible
25 Jan 6.4 07:36:45 10° N 07:40:12 64° WNW 07:43:38 10° SSW visible
25 Jan 7.2 18:19:24 10° S 18:22:54 57° W 18:26:22 10° NNW visible
26 Jan 6.8 07:13:02 10° NNE 07:16:31 70° ESE 07:19:58 10° S visible
26 Jan 6.4 17:55:40 10° SSE 17:59:12 79° ENE 18:02:41 10° NNW visible
26 Jan 10.1 19:31:56 10° WSW 19:33:11 12° W 19:34:28 10° WNW visible
27 Jan 8.1 06:49:29 10° NNE 06:52:45 38° E 06:56:01 10° SSE visible
27 Jan 6.8 17:32:12 10° SE 17:35:33 43° ENE 17:38:53 10° N visible
27 Jan 9.4 19:06:40 10° SW 19:09:17 19° W 19:11:53 10° NW visible
28 Jan 9.3 06:26:09 10° NE 06:28:55 22° E 06:31:43 10° SE visible
28 Jan 8.5 18:42:14 10° SSW 18:45:25 32° W 18:48:37 10° NNW visible
29 Jan 10.0 06:03:15 10° ENE 06:05:01 13° E 06:06:46 10° ESE visible
29 Jan 6.4 07:35:29 10° N 07:38:57 66° WNW 07:42:24 10° SSW visible
29 Jan 7.2 18:18:11 10° S 18:21:39 58° W 18:25:06 10° NNW visible
30 Jan 6.9 07:11:47 10° NNE 07:15:15 68° ESE 07:18:44 10° S visible
30 Jan 6.4 17:54:27 10° SSE 17:57:56 77° ENE 18:01:25 10° NNW visible
30 Jan 10.1 19:30:38 10° WSW 19:31:56 12° W 19:33:14 10° WNW visible
